Voltar ao catálogo

CZ-6A DEB

AtivoPO
NORAD 61451·DEBRIS·🇨🇳 China

Lançado Aug 6, 2024 de Taiyuan Satellite Launch Center

Loading…

Próximas Passagens (próximas 24 horas)

TLE

AtualizadoSource: Space-Track

Época: Sep 14, 2026, 06:44 UTC

1 61451U 24140ZH  26257.28092616  .00004308  00000-0  72652-3 0  9994
2 61451  89.0328 262.6509 0106446 292.7779  66.2218 14.65619545106304

Acompanhe CZ-6A DEB em tempo real com AllMySat

Download on the App Store